"Pseudo-MPEC" for N00fry1

Created 2019 Dec 12 2:07:04 UT using Find_Orb

Click here for an explanation of pseudo-MPECs

 
 Astrometry: 
     N00fry1  S2019 11 22qJ^Ch;h;Jg-TGjh6d13Ik*0g8$P6UEbZ)+xs=#aJWbnyR2;cyd.)C51
     N00fry1  s2019 11 22uvASWcKsC/$Eaxd9fuU4u-F6JEUXN*TI]4Z`TCIXB00^u#$pXlE?C51
     N00fry1  S2019 11 2286i7kH?uVh2k#3+W0TiSdTk9WJ0jU//kS6U@11bDVe1avA;fNZttC51
     N00fry1  s2019 11 22sQD]u:9_#^8$OmD`X,^5LovHklhAstrometry?Lbmynk]C,P(/4@C51
     N00fry1  S2019 11 22gcg1$Fr[Df1FWWiP]QD]y5@Cup%_^FL38Z30vn.bZ.s7wJuOHX(7C51
     N00fry1  s2019 11 22R%3H+L`+xbr6B,sT.[4=/n3!w[3Le_9gjeMujH.fTredacted;/_C51
     N00fry1  S2019 11 22bquwh*W]=XclickZRE:$dQj)X@!Hh0iv?N^jI5Y-l$$PV#k[gkS[C51
     N00fry1  s2019 11 226wU8ywhsAq21tGD(n:,Lk=P\R=M+6bug3here@;5/i0Z!vT@\p[CC51
     N00fry1  S2019 11 22C`Mb8DiwZ+rG#,h?uQb`1c\?foreV6ky3q_`3Q*N?.Ffe,.*(9FhC51
     N00fry1  s2019 11 22$c$D)Z?y,w8l1iPg=IO=6;Jxy,lNpcR:lf:1l9qjQcUtnvk=/-uYC51
     N00fry1  S2019 11 22`Nexplanation?RNmH8Ec*1WpXKgV+1QS-BJg+Xbr7]JePLWOi;GC51
     N00fry1  s2019 11 222sLSu(8,YkmV5;NQZFh=J.HP?w@[8Amem!`u9F/+n?!)ZOZ:O#2SC51

Station data:
(C51) WISE. Measurers A. Mainzer, E. Wright, J. Bauer, T. Grav, J. Dailey, J.
   Masiero, R. Cutri, R. McMillan, R. Walker.

Orbital elements:  N00fry1
   Perihelion 2020 Feb 16.063853 +/- 7.3 TT =  1:31:56 (JD 2458895.563853)
Epoch 2019 Nov 22.0 TT = JDT 2458809.5   Earth MOID: 0.0226   Ve: 0.0626
M 269.98487688 +/- 32               (J2000 ecliptic)          AutoNEOCP
n   1.04591091 +/- 0.526            Peri.  285.45636 +/- 16
a   0.96118338 +/- 0.322            Node   249.81720 +/- 12
e   0.3052849 +/- 0.161             Incl.   13.52415 +/- 30
P   0.94/344.19d           H 22.3   G  0.15   U 12.3  SR
q 0.66774851 +/- 0.132    Q 1.25461824 +/- 11.3
From 6 observations 2019 Nov. 22 (7.8 hr); mean residual 0".58
Residuals in arcseconds: 
191122 C51  .20+  1.3+    191122 C51  .09+  .06-    191122 C51  .26-  .09-    
191122 C51  .32-  1.3-    191122 C51  .16+  .38-    191122 C51  .14+  .47+    

Ephemerides (geocentric):
Date (UTC) HH   RA              Dec         delta   r     elong  mag " sig PA
---- -- -- --  -------------   -----------  ------ ------ -----  --- ---- ---
2019 12 12 02  22 07 28.318   -13 13 24.13  .15031 .94311  69.7 21.8 180' 104
2019 12 12 03  22 07 24.369   -13 17 45.12  .15036 .94288  69.6 21.8 181' 104
2019 12 12 04  22 07 20.414   -13 22 05.96  .15042 .94265  69.6 21.8 182' 104
2019 12 12 05  22 07 16.453   -13 26 26.62  .15047 .94242  69.5 21.8 182' 104
2019 12 12 06  22 07 12.486   -13 30 47.13  .15053 .94220  69.4 21.8 183' 104
2019 12 12 07  22 07 08.513   -13 35 07.46  .15059 .94197  69.3 21.8 183' 104
2019 12 12 08  22 07 04.535   -13 39 27.63  .15064 .94174  69.2 21.8 184' 104
2019 12 12 09  22 07 00.551   -13 43 47.63  .15070 .94152  69.2 21.8 185' 104
2019 12 12 10  22 06 56.560   -13 48 07.47  .15076 .94129  69.1 21.8 185' 104
2019 12 12 11  22 06 52.564   -13 52 27.14  .15082 .94106  69.0 21.8 186' 104
2019 12 12 12  22 06 48.562   -13 56 46.64  .15087 .94083  68.9 21.8 186' 104
2019 12 12 13  22 06 44.553   -14 01 05.97  .15093 .94061  68.8 21.8 187' 104
2019 12 12 14  22 06 40.539   -14 05 25.14  .15099 .94038  68.7 21.8 188' 104
2019 12 12 15  22 06 36.518   -14 09 44.13  .15105 .94015  68.7 21.8 188' 104
2019 12 12 16  22 06 32.491   -14 14 02.96  .15111 .93992  68.6 21.8 189' 104
2019 12 12 17  22 06 28.458   -14 18 21.62  .15116 .93970  68.5 21.8 189' 104
2019 12 12 18  22 06 24.419   -14 22 40.10  .15122 .93947  68.4 21.8 190' 104
2019 12 12 19  22 06 20.374   -14 26 58.42  .15128 .93924  68.3 21.9 191' 104
2019 12 12 20  22 06 16.322   -14 31 16.56  .15134 .93901  68.3 21.9 191' 104
2019 12 12 21  22 06 12.264   -14 35 34.54  .15140 .93878  68.2 21.9 192' 104
2019 12 12 22  22 06 08.199   -14 39 52.34  .15146 .93856  68.1 21.9 193' 104
2019 12 12 23  22 06 04.129   -14 44 09.97  .15152 .93833  68.0 21.9 193' 104
2019 12 13 00  22 06 00.051   -14 48 27.43  .15158 .93810  67.9 21.9 194' 104
2019 12 13 01  22 05 55.968   -14 52 44.72  .15164 .93787  67.9 21.9 194' 104
2019 12 13 02  22 05 51.877   -14 57 01.83  .15170 .93765  67.8 21.9 195' 104
2019 12 13 03  22 05 47.781   -15 01 18.78  .15176 .93742  67.7 21.9 196' 104
2019 12 13 04  22 05 43.677   -15 05 35.54  .15182 .93719  67.6 21.9 196' 104
2019 12 13 05  22 05 39.567   -15 09 52.14  .15188 .93696  67.5 21.9 197' 104
2019 12 13 06  22 05 35.451   -15 14 08.55  .15194 .93673  67.4 21.9 197' 104
2019 12 13 07  22 05 31.328   -15 18 24.80  .15200 .93650  67.4 21.9 198' 104
2019 12 13 08  22 05 27.198   -15 22 40.87  .15206 .93628  67.3 21.9 199' 104
2019 12 13 09  22 05 23.061   -15 26 56.76  .15213 .93605  67.2 21.9 199' 104
2019 12 13 10  22 05 18.918   -15 31 12.48  .15219 .93582  67.1 21.9 200' 104
2019 12 13 11  22 05 14.767   -15 35 28.02  .15225 .93559  67.0 21.9 200' 104
2019 12 13 12  22 05 10.610   -15 39 43.39  .15231 .93536  67.0 21.9 201' 104
2019 12 13 13  22 05 06.447   -15 43 58.57  .15237 .93513  66.9 21.9 202' 104
2019 12 13 14  22 05 02.276   -15 48 13.59  .15244 .93491  66.8 21.9 202' 104
2019 12 13 15  22 04 58.098   -15 52 28.42  .15250 .93468  66.7 21.9 203' 104
2019 12 13 16  22 04 53.913   -15 56 43.08  .15256 .93445  66.6 21.9 203' 104
2019 12 13 17  22 04 49.721   -16 00 57.55  .15262 .93422  66.6 22.0 204' 104
2019 12 13 18  22 04 45.523   -16 05 11.85  .15269 .93399  66.5 22.0 205' 104
2019 12 13 19  22 04 41.317   -16 09 25.97  .15275 .93376  66.4 22.0 205' 104
2019 12 13 20  22 04 37.104   -16 13 39.91  .15281 .93353  66.3 22.0 206' 104
2019 12 13 21  22 04 32.884   -16 17 53.67  .15288 .93330  66.2 22.0 206' 104
2019 12 13 22  22 04 28.656   -16 22 07.25  .15294 .93308  66.1 22.0 207' 104
2019 12 13 23  22 04 24.422   -16 26 20.65  .15301 .93285  66.1 22.0 208' 104
2019 12 14 00  22 04 20.180   -16 30 33.87  .15307 .93262  66.0 22.0 208' 104
2019 12 14 01  22 04 15.931   -16 34 46.91  .15313 .93239  65.9 22.0 209' 104